Location: Avon
(37.7514°N, 90.2235°W)
Time: 03:46:59
(UTC+00:00)

Explorer 7 - Visible Passes

Search period start: 12 November 2024 00:00
Search period end: 22 November 2024 00:00
Orbit: 457 x 601 km, 50.3° (Epoch: 11 November)

Date Brightness Start Highest point End Pass type
(mag) Time Alt. Az. Time Alt. Az. Time Alt. Az.
12 Nov 9.9 09:47:05 11° NE 09:47:05 11° NE 09:47:17 10° NE visible
12 Nov 8.5 11:22:18 17° NNW 11:23:17 18° NNW 11:26:17 10° NNE visible
13 Nov 8.6 11:10:43 17° NNW 11:11:05 17° NNW 11:13:56 10° NNE visible
14 Nov 8.8 10:59:01 16° N 10:59:01 16° N 11:01:33 10° NNE visible
15 Nov 9.0 10:47:15 15° N 10:47:15 15° N 10:49:08 10° NNE visible
16 Nov 9.2 10:35:26 13° NNE 10:35:26 13° NNE 10:36:43 10° NNE visible
16 Nov 8.9 12:12:00 10° NNW 12:14:58 18° NNE 12:18:01 10° ENE visible
17 Nov 9.5 10:23:33 12° NNE 10:23:33 12° NNE 10:24:16 10° NNE visible
17 Nov 8.8 11:59:30 10° NNW 12:02:36 20° NNE 12:05:47 10° ENE visible
18 Nov 9.7 10:11:38 11° NNE 10:11:38 11° NNE 10:11:50 10° NNE visible
18 Nov 8.7 11:46:58 10° NNW 11:50:11 21° NNE 11:53:30 10° ENE visible
19 Nov 8.6 11:34:54 12° NNW 11:37:43 23° NNE 11:41:10 10° ENE visible
20 Nov 8.5 11:22:56 16° NNW 11:25:13 25° NNE 11:28:48 10° E visible
21 Nov 8.3 11:10:58 21° NNW 11:12:38 28° NNE 11:16:21 10° E visible
